Kaneohe, HI

1:08 AM HST on July 28, 2016 (GMT -1000)
Kaneohe Bay Marine Corps Air Facility

Weather History for PHNG - January, 2013

Change the Weather History Date:

Saturday, January 12, 2013

  Actual Average Record
Temperature  
Mean Temperature 76 °F -  
Max Temperature 80 °F 76 °F 83 °F (2014)
Min Temperature 71 °F 66 °F 63 °F (1998)
Cooling Degree Days 10    
Growing Degree Days 26 (Base 50)    
Moisture  
Dew Point 67 °F    
Average Humidity 75    
Maximum Humidity 85    
Minimum Humidity 63    
Precipitation  
Precipitation 0.03 in - - ()
Sea Level Pressure  
Sea Level Pressure 29.93 in    
Wind  
Wind Speed 4 mph (East)    
Max Wind Speed 12 mph    
Max Gust Speed 17 mph    
Visibility 9 miles    
Events Rain    
Averages and records for this station are not official NWS values.
T = Trace of Precipitation, MM = Missing Value Source: NWS Daily Summary

Daily Weather History Graph

Daily Weather History Graph

Search for Another Location

Airport or City:

Trip Planner

Search our weather history database for the weather conditions in past years. The results will help you decide how hot, cold, wet, or windy it might be!

Date:

Astronomy

Jan. 12, 2013 Rise Set
Actual Time 7:11 AM HST 6:08 PM HST
Civil Twilight 6:47 AM HST 6:31 PM HST
Nautical Twilight 6:19 AM HST 6:59 PM HST
Astronomical Twilight 5:52 AM HST 7:26 PM HST
Moon 7:51 AM HST (1/12) 7:33 PM HST (1/12)
Length of Visible Light 11h 44m
Length of Day
10h 56m
New Moon, 2% of the Moon is Illuminated
Jan 12
New Moon
Jan 18
First Quarter
Jan 26
Full
Feb 3
Last Quarter
Feb 9
New

Hourly Weather History & Observations

Time (HST) Temp. Heat Index Dew Point Humidity Pressure Visibility Wind Dir Wind Speed Gust Speed Precip Events Conditions
12:57 AM 73.4 °F - 68.0 °F 83% 29.92 in 10.0 mi ENE 3.5 mph - N/A   Mostly Cloudy
1:57 AM 73.4 °F - 66.9 °F 80% 29.92 in 10.0 mi Calm Calm - N/A   Scattered Clouds
2:00 AM - - - N/A% - - North - - N/A   Unknown
2:04 AM 71.6 °F - 66.2 °F 83% 29.93 in 6.2 mi Calm Calm - N/A   Mostly Cloudy
2:57 AM 71.6 °F - 66.9 °F 85% 29.91 in 10.0 mi Calm Calm - 0.01 in Rain Light Rain
3:17 AM - - - N/A% 29.92 in 6.2 mi ENE 3.5 mph - 0.00 in   Mostly Cloudy
3:57 AM 71.6 °F - 66.9 °F 85% 29.91 in 10.0 mi ENE 5.8 mph - 0.00 in   Scattered Clouds
4:07 AM 71.6 °F - 66.2 °F 83% 29.92 in 6.2 mi ENE 4.6 mph - N/A   Mostly Cloudy
4:23 AM 71.6 °F - 66.2 °F 83% 29.92 in 6.2 mi ENE 5.8 mph - N/A   Scattered Clouds
4:57 AM 71.6 °F - 66.9 °F 85% 29.91 in 10.0 mi ENE 3.5 mph - N/A   Overcast
5:57 AM 73.4 °F - 66.0 °F 78% 29.92 in 10.0 mi Variable 5.8 mph - 0.00 in   Scattered Clouds
6:57 AM 73.4 °F - 66.9 °F 80% 29.93 in 10.0 mi ENE 5.8 mph - N/A   Mostly Cloudy
7:57 AM 73.4 °F - 66.0 °F 78% 29.95 in 10.0 mi East 6.9 mph - N/A   Scattered Clouds
8:15 AM 73.4 °F - 66.2 °F 78% 29.97 in 6.2 mi East 6.9 mph - N/A   Mostly Cloudy
8:26 AM 73.4 °F - 66.2 °F 78% 29.97 in 6.2 mi East 9.2 mph - N/A   Overcast
8:57 AM 73.4 °F - 66.0 °F 78% 29.96 in 10.0 mi East 4.6 mph - N/A   Overcast
9:12 AM - - - N/A% 29.98 in 6.2 mi East 3.5 mph - N/A   Overcast
9:57 AM 77.0 °F - 66.9 °F 71% 29.96 in 10.0 mi East 10.4 mph - N/A   Mostly Cloudy
10:04 AM 77.0 °F - 66.2 °F 69% 29.97 in 6.2 mi East 10.4 mph 16.1 mph N/A   Mostly Cloudy
10:57 AM 77.0 °F - 66.9 °F 71% 29.95 in 10.0 mi East 8.1 mph - N/A   Mostly Cloudy
11:08 AM 77.0 °F - 66.2 °F 69% 29.96 in 6.2 mi East 8.1 mph - N/A   Mostly Cloudy
11:17 AM 77.0 °F - 66.2 °F 69% 29.95 in 6.2 mi East 9.2 mph - N/A   Scattered Clouds
11:57 AM 80.6 °F 82.9 °F 66.9 °F 63% 29.92 in 10.0 mi ESE 9.2 mph - N/A   Scattered Clouds
12:57 PM 80.6 °F 83.2 °F 68.0 °F 65% 29.89 in 10.0 mi East 9.2 mph - N/A   Scattered Clouds
1:46 PM 80.6 °F 83.2 °F 68.0 °F 65% 29.90 in 6.2 mi ESE 11.5 mph 17.3 mph N/A   Mostly Cloudy
1:57 PM 80.6 °F 83.2 °F 68.0 °F 65% 29.89 in 10.0 mi ESE 11.5 mph - 0.00 in Rain Light Rain
2:57 PM 78.8 °F - 69.1 °F 72% 29.88 in 10.0 mi SE 5.8 mph - 0.02 in Rain Light Rain
3:04 PM - - - N/A% 29.90 in 6.2 mi Variable 4.6 mph - 0.00 in Rain Light Rain
3:57 PM 78.8 °F - 68.0 °F 69% 29.89 in 10.0 mi SE 4.6 mph - 0.00 in   Mostly Cloudy
4:57 PM 80.6 °F 82.9 °F 66.9 °F 63% 29.90 in 10.0 mi Variable 3.5 mph - N/A   Clear
5:57 PM 75.2 °F - 66.9 °F 75% 29.91 in 10.0 mi Calm Calm - N/A   Scattered Clouds
6:57 PM 75.2 °F - 68.0 °F 78% 29.92 in 10.0 mi Calm Calm - N/A   Scattered Clouds
7:57 PM - - - N/A% 29.94 in 10.0 mi Calm Calm - N/A   Partly Cloudy
8:57 PM - - - N/A% 29.95 in 10.0 mi Calm Calm - N/A   Clear
9:57 PM - - - N/A% 29.96 in 10.0 mi Calm Calm - N/A   Clear
10:57 PM - - - N/A% 29.96 in 10.0 mi Calm Calm - N/A   Partly Cloudy
11:57 PM - - - N/A% 29.95 in 10.0 mi Calm Calm - N/A   Partly Cloudy